This demonstration page uses our WeatherBlox Daily Observations layout. Learn more.

Hourly Observations for June 7, 2019

Temp ( °F °C ) Dew Point ( °F °C ) Humidity (%) Winds ( mph kmh ) Pressure ( in mb ) Visibility ( mi km ) Precip ( " mm )
12:15 am 00:15 Clear 73 23 68 20 83 83 N 5 7 29.85 1011 10 16.09344 0 0
12:35 am 00:35 Clear 73 23 66 19 78 78 N 5 7 29.85 1011 10 16.09344 0 0
12:55 am 00:55 Clear 73 23 66 19 78 78 Calm 29.85 1011 10 16.09344 0 0
1:15 am 01:15 Clear 72 22 66 19 83 83 NW 3 6 29.85 1011 10 16.09344 0 0
1:35 am 01:35 Clear 70 21 68 20 94 94 Calm 29.85 1011 10 16.09344 0 0
1:55 am 01:55 Clear 72 22 66 19 83 83 Calm 29.85 1011 10 16.09344 0 0
2:15 am 02:15 Clear 72 22 66 19 83 83 N 7 11 29.85 1011 10 16.09344 0 0
2:35 am 02:35 Clear 72 22 68 20 88 88 NNE 7 11 29.85 1011 10 16.09344 0 0
2:55 am 02:55 Clear 72 22 68 20 88 88 NNE 9 15 29.85 1011 10 16.09344 0 0
3:15 am 03:15 Clear 72 22 68 20 88 88 NNE 9 15 29.85 1011 10 16.09344 0 0
3:35 am 03:35 Clear 72 22 68 20 88 88 NNE 7 11 29.85 1011 10 16.09344 0 0
3:55 am 03:55 Clear 70 21 68 20 94 94 NNE 9 15 29.85 1011 10 16.09344 0 0
4:15 am 04:15 Clear 70 21 68 20 94 94 NE 7 11 29.85 1011 10 16.09344 0 0
4:35 am 04:35 Clear 70 21 66 19 88 88 NNE 8 13 29.85 1011 10 16.09344 0 0
4:55 am 04:55 Clear 70 21 66 19 88 88 NNE 8 13 29.85 1011 10 16.09344 0 0
5:15 am 05:15 Clear 70 21 66 19 88 88 NNE 10 17 29.88 1012 10 16.09344 0 0
5:35 am 05:35 Clear 70 21 66 19 88 88 NNE 7 11 29.88 1012 10 16.09344 0 0
5:55 am 05:55 Sunny 70 21 64 18 83 83 NE 7 11 29.88 1012 10 16.09344 0 0
6:15 am 06:15 Sunny 70 21 64 18 83 83 NNE 6 9 29.88 1012 10 16.09344 0 0
6:35 am 06:35 Sunny 70 21 64 18 83 83 NNE 7 11 29.91 1013 10 16.09344 0 0
6:55 am 06:55 Sunny 70 21 64 18 83 83 NNE 8 13 29.91 1013 10 16.09344 0 0
7:15 am 07:15 Sunny 70 21 64 18 83 83 NNE 7 11 29.91 1013 10 16.09344 0 0
7:35 am 07:35 Sunny 70 21 64 18 83 83 NE 8 13 29.91 1013 10 16.09344 0 0
7:55 am 07:55 Sunny 70 21 64 18 83 83 NE 6 9 29.91 1013 10 16.09344 0 0
8:15 am 08:15 Sunny 72 22 64 18 78 78 NE 8 13 29.91 1013 10 16.09344 0 0
8:35 am 08:35 Partly Cloudy 72 22 64 18 78 78 NE 9 15 29.94 1014 10 16.09344 0 0
9:15 am 09:15 Sunny 73 23 64 18 74 74 NNE 7 11 29.94 1014 10 16.09344 0 0
9:35 am 09:35 Sunny 73 23 64 18 74 74 NE 10 17 29.94 1014 10 16.09344 0 0
9:55 am 09:55 Sunny 73 23 63 17 69 69 NE 8 13 29.94 1014 10 16.09344 0 0
10:15 am 10:15 Sunny 73 23 64 18 74 74 NE 8 13 29.94 1014 10 16.09344 0 0
10:35 am 10:35 Sunny 73 23 64 18 74 74 NE 8 13 29.94 1014 10 16.09344 0 0
10:55 am 10:55 Sunny 75 24 64 18 69 69 NE 8 13 29.94 1014 10 16.09344 0 0
11:15 am 11:15 Mostly Cloudy 77 25 63 17 61 61 E 7 11 29.94 1014 10 16.09344 0 0
11:35 am 11:35 Cloudy 75 24 64 18 69 69 NNE 6 9 29.94 1014 10 16.09344 0 0
11:55 am 11:55 Mostly Cloudy 77 25 64 18 65 65 NE 8 13 29.94 1014 10 16.09344 0 0
12:15 pm 12:15 Partly Cloudy 77 25 64 18 65 65 NNE 7 11 29.94 1014 10 16.09344 0 0
12:35 pm 12:35 Partly Cloudy 79 26 64 18 61 61 NE 5 7 29.94 1014 10 16.09344 0 0
12:55 pm 12:55 Partly Cloudy 79 26 63 17 58 58 ENE 8 13 29.94 1014 10 16.09344 0 0
1:15 pm 13:15 Partly Cloudy 79 26 63 17 58 58 ENE 6 9 29.94 1014 10 16.09344 0 0
1:35 pm 13:35 Mostly Cloudy 79 26 63 17 58 58 E 7 11 29.94 1014 10 16.09344 0 0
1:55 pm 13:55 Partly Cloudy 79 26 63 17 58 58 NE 6 9 29.94 1014 10 16.09344 0 0
2:15 pm 14:15 Partly Cloudy 79 26 63 17 58 58 NE 7 11 29.94 1014 10 16.09344 0 0
2:35 pm 14:35 Partly Cloudy 81 27 64 18 58 58 ENE 6 9 29.94 1014 10 16.09344 0 0
2:55 pm 14:55 Sunny 81 27 64 18 58 58 NE 6 9 29.91 1013 10 16.09344 0 0
3:15 pm 15:15 Partly Cloudy 81 27 63 17 54 54 NE 8 13 29.91 1013 10 16.09344 0 0
3:35 pm 15:35 Sunny 81 27 64 18 58 58 NE 8 13 29.91 1013 10 16.09344 0 0
3:55 pm 15:55 Partly Cloudy 81 27 63 17 54 54 ENE 8 13 29.94 1014 10 16.09344 0 0
4:15 pm 16:15 Mostly Cloudy 81 27 64 18 58 58 ENE 7 11 29.94 1014 10 16.09344 0 0
4:35 pm 16:35 Cloudy 81 27 61 16 51 51 ESE 9 15 29.94 1014 10 16.09344 0 0
4:55 pm 16:55 Cloudy 81 27 61 16 51 51 E 8 13 29.94 1014 10 16.09344 0 0
5:15 pm 17:15 Partly Cloudy 81 27 63 17 54 54 ESE 9 15 29.94 1014 10 16.09344 0 0
5:35 pm 17:35 Mostly Cloudy 81 27 63 17 54 54 ESE 8 13 29.94 1014 10 16.09344 0 0
5:55 pm 17:55 Cloudy 81 27 61 16 51 51 ESE 9 15 29.91 1013 10 16.09344 0 0
6:15 pm 18:15 Cloudy 79 26 63 17 58 58 E 8 13 29.94 1014 10 16.09344 0 0
6:35 pm 18:35 Cloudy 79 26 63 17 58 58 E 7 11 29.94 1014 10 16.09344 0 0
6:55 pm 18:55 Cloudy 79 26 63 17 58 58 ESE 6 9 29.94 1014 10 16.09344 0 0
7:15 pm 19:15 Cloudy 79 26 63 17 58 58 E 6 9 29.94 1014 10 16.09344 0 0
7:35 pm 19:35 Cloudy 79 26 64 18 61 61 Calm 29.94 1014 10 16.09344 0 0
7:55 pm 19:55 Cloudy 79 26 64 18 61 61 E 3 6 29.94 1014 10 16.09344 0 0
8:15 pm 20:15 Mostly Cloudy 77 25 64 18 65 65 ENE 3 6 29.94 1014 10 16.09344 0 0
8:35 pm 20:35 Mostly Cloudy 77 25 64 18 65 65 ENE 3 6 29.97 1015 10 16.09344 0 0
8:55 pm 20:55 Cloudy 77 25 64 18 65 65 NNE 5 7 29.97 1015 10 16.09344 0 0
9:15 pm 21:15 Mostly Cloudy 77 25 64 18 65 65 NE 5 7 29.97 1015 10 16.09344 0 0
9:35 pm 21:35 Partly Cloudy 75 24 64 18 69 69 NNE 5 7 29.97 1015 10 16.09344 0 0
9:55 pm 21:55 Clear 73 23 64 18 74 74 NNE 5 7 29.97 1015 10 16.09344 0 0
10:15 pm 22:15 Partly Cloudy 73 23 64 18 74 74 NNE 3 6 30 1016 10 16.09344 0 0
10:35 pm 22:35 Partly Cloudy 73 23 64 18 74 74 NNE 6 9 30 1016 10 16.09344 0 0
10:55 pm 22:55 Clear 72 22 64 18 78 78 NNE 5 7 30 1016 10 16.09344 0 0
11:15 pm 23:15 Clear 72 22 64 18 78 78 NNE 3 6 30 1016 10 16.09344 0 0
11:35 pm 23:35 Clear 72 22 64 18 78 78 NE 6 9 30 1016 10 16.09344 0 0
11:55 pm 23:55 Clear 72 22 63 17 73 73 NNE 6 9 30 1016 10 16.09344 0 0

Powered by AerisWeather